EJU48QZ LIMC-LEMG

Flight info

Callsign EJU48QZ
Flight time 2h 14m
Altitude 35000
Route NEDED DCT GEKBA DCT VAMTU DCT KOLON DCT GANGU DCT PADKO DCT DIVKO DCT NILDU DCT NENDA DCT BCN M985 VIBAS
Aircraft A21N/M-SDE2E3FGHIRWXY/LB1

Departure

Time 2026-05-05 04:19
Airport Milan Malpensa International Airport (LIMC)

Arrival

Time 2026-05-05 06:33
Airport Málaga-Costa del Sol Airport (LEMG)
Time Latitude Longitude Altitude Speed Heading
2026-05-05 03:53 45.64563 8.72210 746 ft 0 kts 78°
2026-05-05 04:05 45.64558 8.72181 755 ft 4 kts 79°
2026-05-05 04:05 45.64556 8.72143 743 ft 4 kts 96°
2026-05-05 04:05 45.64561 8.72113 744 ft 4 kts 126°
2026-05-05 04:05 45.64581 8.72097 745 ft 4 kts 170°
2026-05-05 04:06 45.64583 8.72096 745 ft 4 kts 170°
2026-05-05 04:07 45.64594 8.72094 744 ft 3 kts 169°
2026-05-05 04:07 45.64594 8.72093 744 ft 0 kts 169°
2026-05-05 04:09 45.64594 8.72094 746 ft 0 kts 169°
2026-05-05 04:10 45.64589 8.72095 746 ft 2 kts 169°
2026-05-05 04:10 45.64563 8.72102 746 ft 6 kts 169°
2026-05-05 04:10 45.64512 8.72115 746 ft 9 kts 169°
2026-05-05 04:11 45.64451 8.72147 746 ft 11 kts 137°
2026-05-05 04:11 45.64425 8.72240 746 ft 8 kts 81°
2026-05-05 04:11 45.64434 8.72328 746 ft 10 kts 81°
2026-05-05 04:11 45.64420 8.72419 744 ft 11 kts 150°
2026-05-05 04:12 45.64340 8.72444 746 ft 12 kts 169°
2026-05-05 04:12 45.64251 8.72471 746 ft 14 kts 167°
2026-05-05 04:12 45.64154 8.72500 746 ft 15 kts 168°
2026-05-05 04:12 45.64042 8.72539 746 ft 17 kts 164°
2026-05-05 04:13 45.63920 8.72574 746 ft 19 kts 169°
2026-05-05 04:13 45.63786 8.72611 746 ft 20 kts 169°
2026-05-05 04:13 45.63644 8.72650 746 ft 21 kts 169°
2026-05-05 04:13 45.63548 8.72677 746 ft 22 kts 168°
2026-05-05 04:14 45.63400 8.72719 746 ft 22 kts 169°
2026-05-05 04:14 45.63246 8.72762 746 ft 23 kts 169°
2026-05-05 04:14 45.63085 8.72807 746 ft 24 kts 169°
2026-05-05 04:14 45.62919 8.72852 746 ft 25 kts 169°
2026-05-05 04:15 45.62746 8.72899 744 ft 26 kts 169°
2026-05-05 04:15 45.62572 8.72946 746 ft 24 kts 169°
2026-05-05 04:15 45.62405 8.72991 745 ft 25 kts 169°
2026-05-05 04:15 45.62233 8.73038 743 ft 26 kts 169°
2026-05-05 04:16 45.62056 8.73087 747 ft 26 kts 169°
2026-05-05 04:16 45.61919 8.73124 747 ft 17 kts 169°
2026-05-05 04:16 45.61797 8.73158 745 ft 18 kts 167°
2026-05-05 04:16 45.61719 8.73255 746 ft 8 kts 128°
2026-05-05 04:17 45.61683 8.73328 745 ft 10 kts 124°
2026-05-05 04:17 45.61637 8.73424 744 ft 13 kts 123°
2026-05-05 04:17 45.61592 8.73538 747 ft 14 kts 106°
2026-05-05 04:17 45.61593 8.73679 745 ft 15 kts 81°
2026-05-05 04:18 45.61666 8.73722 744 ft 12 kts 355°
2026-05-05 04:18 45.61778 8.73692 745 ft 35 kts 349°
2026-05-05 04:18 45.62243 8.73564 743 ft 99 kts 349°
2026-05-05 04:18 45.63096 8.73330 743 ft 148 kts 348°
2026-05-05 04:19 45.64228 8.73021 892 ft 172 kts 349°
2026-05-05 04:19 45.65431 8.72714 1403 ft 176 kts 352°
2026-05-05 04:19 45.66673 8.72728 1871 ft 190 kts
2026-05-05 04:19 45.68038 8.72736 2395 ft 203 kts 360°
2026-05-05 04:20 45.69534 8.72688 2775 ft 228 kts 359°
2026-05-05 04:20 45.71152 8.72600 3479 ft 236 kts 359°
2026-05-05 04:20 45.72777 8.72139 4197 ft 246 kts 333°
2026-05-05 04:20 45.74070 8.70496 4921 ft 255 kts 304°
2026-05-05 04:21 45.74773 8.68118 5544 ft 267 kts 283°
2026-05-05 04:21 45.74813 8.65409 6030 ft 281 kts 255°
2026-05-05 04:21 45.73942 8.62927 6760 ft 281 kts 227°
2026-05-05 04:21 45.72445 8.61161 7575 ft 279 kts 211°
2026-05-05 04:22 45.70812 8.59661 8449 ft 279 kts 210°
2026-05-05 04:22 45.69180 8.58163 9297 ft 279 kts 210°
2026-05-05 04:22 45.67547 8.56633 10154 ft 281 kts 210°
2026-05-05 04:22 45.65866 8.55038 10550 ft 300 kts 211°
2026-05-05 04:23 45.64075 8.53325 10842 ft 320 kts 211°
2026-05-05 04:23 45.62173 8.51496 11131 ft 340 kts 211°
2026-05-05 04:23 45.60159 8.49551 11381 ft 358 kts 211°
2026-05-05 04:23 45.58050 8.47508 11615 ft 374 kts 211°
2026-05-05 04:24 45.55832 8.45448 11922 ft 384 kts 207°
2026-05-05 04:24 45.53362 8.44018 12413 ft 384 kts 194°
2026-05-05 04:24 45.50771 8.43059 12961 ft 386 kts 192°
2026-05-05 04:25 45.45516 8.41205 14039 ft 392 kts 192°
2026-05-05 04:25 45.42854 8.40260 14426 ft 396 kts 192°
2026-05-05 04:25 45.40177 8.39304 14857 ft 399 kts 193°
2026-05-05 04:25 45.37475 8.38329 15352 ft 401 kts 193°
2026-05-05 04:26 45.34767 8.37353 15837 ft 402 kts 193°
2026-05-05 04:26 45.32054 8.36370 16255 ft 403 kts 193°
2026-05-05 04:26 45.29321 8.35384 16652 ft 406 kts 193°
2026-05-05 04:26 45.26578 8.34399 17048 ft 407 kts 193°
2026-05-05 04:27 45.23860 8.33426 17423 ft 410 kts 194°
2026-05-05 04:27 45.21083 8.32430 17805 ft 411 kts 194°
2026-05-05 04:27 45.18297 8.31438 18193 ft 413 kts 194°
2026-05-05 04:27 45.15509 8.30440 18534 ft 415 kts 194°
2026-05-05 04:28 45.12702 8.29434 18847 ft 417 kts 194°
2026-05-05 04:28 45.09870 8.28424 19165 ft 419 kts 194°
2026-05-05 04:28 45.07037 8.27409 19498 ft 422 kts 195°
2026-05-05 04:28 45.04175 8.26389 19833 ft 425 kts 194°
2026-05-05 04:29 45.01306 8.25371 20163 ft 427 kts 194°
2026-05-05 04:29 44.98412 8.24338 20508 ft 430 kts 194°
2026-05-05 04:29 44.95506 8.23305 20858 ft 432 kts 194°
2026-05-05 04:29 44.92588 8.22267 21274 ft 435 kts 194°
2026-05-05 04:30 44.89639 8.21217 21715 ft 437 kts 194°
2026-05-05 04:30 44.86674 8.20169 22097 ft 441 kts 194°
2026-05-05 04:30 44.83690 8.19117 22455 ft 443 kts 194°
2026-05-05 04:30 44.80691 8.18054 22800 ft 446 kts 194°
2026-05-05 04:31 44.77672 8.16987 23119 ft 448 kts 194°
2026-05-05 04:31 44.74631 8.15926 23430 ft 450 kts 194°
2026-05-05 04:31 44.71593 8.14847 23756 ft 452 kts 195°
2026-05-05 04:31 44.68674 8.13364 24048 ft 452 kts 205°
2026-05-05 04:32 44.65905 8.11246 24300 ft 454 kts 210°
2026-05-05 04:32 44.63221 8.08914 24596 ft 453 kts 211°
2026-05-05 04:32 44.60557 8.06571 24875 ft 453 kts 211°
2026-05-05 04:32 44.57881 8.04246 25121 ft 452 kts 211°
2026-05-05 04:33 44.55194 8.01927 25356 ft 452 kts 211°
2026-05-05 04:33 44.52521 7.99617 25599 ft 451 kts 211°
2026-05-05 04:33 44.49847 7.97320 25859 ft 451 kts 211°
2026-05-05 04:33 44.47179 7.95039 26206 ft 448 kts 210°
2026-05-05 04:34 44.44530 7.92773 26523 ft 446 kts 210°
2026-05-05 04:34 44.41883 7.90511 26802 ft 444 kts 210°
2026-05-05 04:34 44.39238 7.88267 27069 ft 443 kts 210°
2026-05-05 04:34 44.36604 7.86031 27316 ft 442 kts 210°
2026-05-05 04:35 44.33980 7.83797 27546 ft 442 kts 210°
2026-05-05 04:35 44.31352 7.81559 27754 ft 442 kts 210°
2026-05-05 04:35 44.28721 7.79334 27974 ft 441 kts 210°
2026-05-05 04:35 44.26200 7.76882 28170 ft 443 kts 217°
2026-05-05 04:36 44.23866 7.74076 28409 ft 444 kts 219°
2026-05-05 04:36 44.21555 7.71209 28647 ft 443 kts 219°
2026-05-05 04:36 44.19248 7.68359 28847 ft 443 kts 219°
2026-05-05 04:36 44.16939 7.65512 29049 ft 443 kts 219°
2026-05-05 04:37 44.14654 7.62617 29232 ft 444 kts 223°
2026-05-05 04:37 44.12566 7.59422 29417 ft 447 kts 226°
2026-05-05 04:37 44.10535 7.56157 29742 ft 444 kts 226°
2026-05-05 04:37 44.08543 7.52951 30037 ft 442 kts 226°
2026-05-05 04:38 44.06527 7.49719 30258 ft 441 kts 226°
2026-05-05 04:38 44.04521 7.46512 30446 ft 440 kts 226°
2026-05-05 04:38 44.02518 7.43311 30686 ft 439 kts 226°
2026-05-05 04:38 44.00515 7.40118 30899 ft 437 kts 226°
2026-05-05 04:39 43.98517 7.36939 31099 ft 436 kts 227°
2026-05-05 04:39 43.96521 7.33775 31380 ft 433 kts 227°
2026-05-05 04:39 43.94543 7.30634 31667 ft 430 kts 228°
2026-05-05 04:39 43.92582 7.27518 31880 ft 427 kts 228°
2026-05-05 04:40 43.90630 7.24420 32073 ft 426 kts 228°
2026-05-05 04:40 43.88682 7.21332 32245 ft 426 kts 228°
2026-05-05 04:40 43.86719 7.18251 32419 ft 425 kts 227°
2026-05-05 04:40 43.84766 7.15183 32561 ft 425 kts 228°
2026-05-05 04:41 43.82822 7.12117 32712 ft 424 kts 228°
2026-05-05 04:41 43.80872 7.09040 32864 ft 423 kts 228°
2026-05-05 04:41 43.78941 7.05985 33039 ft 422 kts 229°
2026-05-05 04:41 43.77003 7.02932 33207 ft 420 kts 229°
2026-05-05 04:42 43.75072 6.99898 33361 ft 419 kts 229°
2026-05-05 04:42 43.73186 6.96826 33507 ft 418 kts 232°
2026-05-05 04:42 43.71628 6.93424 33608 ft 419 kts 242°
2026-05-05 04:42 43.70453 6.89741 33725 ft 419 kts 246°
2026-05-05 04:43 43.69373 6.86000 33840 ft 419 kts 247°
2026-05-05 04:43 43.68298 6.82251 33965 ft 418 kts 246°
2026-05-05 04:43 43.67220 6.78530 34062 ft 418 kts 246°
2026-05-05 04:44 43.65033 6.71108 34226 ft 417 kts 246°
2026-05-05 04:44 43.62841 6.63715 34375 ft 416 kts 246°
2026-05-05 04:45 43.60651 6.56340 34565 ft 415 kts 246°
2026-05-05 04:45 43.58481 6.49044 34737 ft 413 kts 246°
2026-05-05 04:46 43.56293 6.41725 34876 ft 413 kts 246°
2026-05-05 04:46 43.54097 6.34408 34944 ft 413 kts 246°
2026-05-05 04:47 43.51895 6.27092 34938 ft 413 kts 246°
2026-05-05 04:47 43.49693 6.19779 34932 ft 413 kts 246°
2026-05-05 04:48 43.47486 6.12478 34932 ft 413 kts 246°
2026-05-05 04:48 43.45274 6.05199 34934 ft 409 kts 246°
2026-05-05 04:49 43.43065 5.97975 34932 ft 411 kts 246°
2026-05-05 04:49 43.40841 5.90724 34925 ft 408 kts 246°
2026-05-05 04:50 43.38651 5.83483 34925 ft 411 kts 246°
2026-05-05 04:50 43.36442 5.76257 34918 ft 409 kts 246°
2026-05-05 04:51 43.34216 5.69038 34940 ft 409 kts 245°
2026-05-05 04:51 43.31997 5.61856 34919 ft 410 kts 245°
2026-05-05 04:52 43.29753 5.54691 34907 ft 407 kts 245°
2026-05-05 04:52 43.27524 5.47516 34903 ft 407 kts 246°
2026-05-05 04:53 43.25325 5.40392 34904 ft 407 kts 246°
2026-05-05 04:53 43.23119 5.33283 34903 ft 407 kts 246°
2026-05-05 04:54 43.20910 5.26196 34904 ft 404 kts 245°
2026-05-05 04:54 43.18679 5.19103 34900 ft 404 kts 245°
2026-05-05 04:55 43.16442 5.12046 34897 ft 405 kts 245°
2026-05-05 04:55 43.14199 5.04944 34899 ft 407 kts 245°
2026-05-05 04:56 43.11971 4.97841 34875 ft 405 kts 246°
2026-05-05 04:56 43.09751 4.90787 34896 ft 400 kts 245°
2026-05-05 04:57 43.07530 4.83766 34895 ft 403 kts 245°
2026-05-05 04:57 43.04848 4.77117 34888 ft 399 kts 232°
2026-05-05 04:58 43.01553 4.72671 34897 ft 403 kts 223°
2026-05-05 04:58 42.96647 4.66830 34899 ft 401 kts 223°
2026-05-05 04:59 42.93116 4.62597 34904 ft 403 kts 223°
2026-05-05 04:59 42.88960 4.57614 34901 ft 395 kts 224°
2026-05-05 05:00 42.84889 4.52707 34913 ft 393 kts 224°
2026-05-05 05:00 42.80776 4.47760 34910 ft 393 kts 224°
2026-05-05 05:01 42.76692 4.42872 34914 ft 393 kts 224°
2026-05-05 05:01 42.72589 4.37964 34912 ft 394 kts 224°
2026-05-05 05:02 42.68468 4.33048 34914 ft 392 kts 224°
2026-05-05 05:02 42.64350 4.28148 34916 ft 394 kts 224°
2026-05-05 05:03 42.60242 4.23252 34919 ft 393 kts 224°
2026-05-05 05:03 42.56122 4.18354 34939 ft 393 kts 224°
2026-05-05 05:04 42.52008 4.13487 34908 ft 393 kts 224°
2026-05-05 05:04 42.47929 4.08673 34922 ft 390 kts 224°
2026-05-05 05:05 42.43806 4.03798 34926 ft 391 kts 224°
2026-05-05 05:05 42.39744 3.98998 34927 ft 391 kts 224°
2026-05-05 05:06 42.35645 3.94182 34934 ft 389 kts 224°
2026-05-05 05:06 42.31544 3.89360 34916 ft 392 kts 224°
2026-05-05 05:07 42.27439 3.84543 34924 ft 389 kts 225°
2026-05-05 05:07 42.23937 3.79031 34952 ft 386 kts 236°
2026-05-05 05:08 42.20855 3.73108 34937 ft 387 kts 236°
2026-05-05 05:08 42.17779 3.67249 34932 ft 385 kts 236°
2026-05-05 05:09 42.14666 3.61360 34928 ft 384 kts 236°
2026-05-05 05:09 42.11559 3.55480 34926 ft 387 kts 236°
2026-05-05 05:10 42.08446 3.49617 34929 ft 385 kts 236°
2026-05-05 05:10 42.05324 3.43738 34931 ft 384 kts 235°
2026-05-05 05:11 42.02208 3.37890 34931 ft 386 kts 236°
2026-05-05 05:11 41.99087 3.32033 34930 ft 386 kts 235°
2026-05-05 05:12 41.95957 3.26186 34931 ft 384 kts 235°
2026-05-05 05:12 41.92818 3.20313 34901 ft 388 kts 235°
2026-05-05 05:13 41.89667 3.14439 34915 ft 386 kts 235°
2026-05-05 05:13 41.86509 3.08577 34933 ft 388 kts 235°
2026-05-05 05:14 41.83365 3.02730 34939 ft 383 kts 235°
2026-05-05 05:14 41.80224 2.96921 34930 ft 386 kts 235°
2026-05-05 05:15 41.77073 2.91094 34928 ft 385 kts 235°
2026-05-05 05:15 41.73924 2.85285 34910 ft 384 kts 235°
2026-05-05 05:16 41.70768 2.79472 34929 ft 388 kts 235°
2026-05-05 05:16 41.67575 2.73683 34932 ft 386 kts 233°
2026-05-05 05:17 41.64296 2.68034 34935 ft 385 kts 233°
2026-05-05 05:17 41.60965 2.62325 34947 ft 386 kts 233°
2026-05-05 05:18 41.57659 2.56658 34943 ft 386 kts 233°
2026-05-05 05:18 41.54347 2.50987 34947 ft 388 kts 233°
2026-05-05 05:19 41.51033 2.45315 34932 ft 389 kts 233°
2026-05-05 05:19 41.47713 2.39644 34940 ft 389 kts 233°
2026-05-05 05:20 41.44366 2.33957 34948 ft 391 kts 233°
2026-05-05 05:20 41.41017 2.28258 34973 ft 391 kts 233°
2026-05-05 05:21 41.37663 2.22574 34949 ft 390 kts 233°
2026-05-05 05:21 41.34311 2.16891 34936 ft 390 kts 233°
2026-05-05 05:22 41.30933 2.11208 34913 ft 394 kts 232°
2026-05-05 05:22 41.27296 2.05739 34926 ft 393 kts 230°
2026-05-05 05:23 41.23653 2.00355 34933 ft 394 kts 230°
2026-05-05 05:23 41.19996 1.94950 34938 ft 395 kts 230°
2026-05-05 05:24 41.16335 1.89549 34961 ft 392 kts 230°
2026-05-05 05:24 41.12687 1.84180 34952 ft 392 kts 230°
2026-05-05 05:25 41.09043 1.78813 34946 ft 392 kts 230°
2026-05-05 05:25 41.05397 1.73436 34942 ft 391 kts 230°
2026-05-05 05:26 41.01730 1.68079 34945 ft 392 kts 230°
2026-05-05 05:26 40.98063 1.62711 34945 ft 393 kts 230°
2026-05-05 05:27 40.94404 1.57362 34946 ft 392 kts 230°
2026-05-05 05:27 40.88904 1.49346 34930 ft 392 kts 230°
2026-05-05 05:28 40.85259 1.44032 34941 ft 391 kts 230°
2026-05-05 05:28 40.81581 1.38700 34940 ft 392 kts 230°
2026-05-05 05:29 40.77903 1.33383 34953 ft 392 kts 230°
2026-05-05 05:29 40.74229 1.28069 34943 ft 392 kts 230°
2026-05-05 05:30 40.70555 1.22768 34951 ft 392 kts 230°
2026-05-05 05:30 40.66872 1.17454 34946 ft 392 kts 230°
2026-05-05 05:31 40.63219 1.12185 34959 ft 393 kts 230°
2026-05-05 05:31 40.59533 1.06886 34952 ft 392 kts 230°
2026-05-05 05:32 40.55848 1.01595 34948 ft 393 kts 230°
2026-05-05 05:32 40.52158 0.96324 34947 ft 392 kts 230°
2026-05-05 05:33 40.48461 0.91042 34948 ft 391 kts 230°
2026-05-05 05:33 40.44760 0.85767 34941 ft 392 kts 230°
2026-05-05 05:34 40.41075 0.80508 34946 ft 392 kts 230°
2026-05-05 05:34 40.37377 0.75250 34953 ft 392 kts 230°
2026-05-05 05:35 40.33671 0.69999 34945 ft 392 kts 230°
2026-05-05 05:35 40.29969 0.64754 34941 ft 392 kts 230°
2026-05-05 05:36 40.26252 0.59499 34941 ft 392 kts 230°
2026-05-05 05:36 40.22541 0.54293 34937 ft 389 kts 230°
2026-05-05 05:37 40.18839 0.49105 34941 ft 390 kts 230°
2026-05-05 05:37 40.15142 0.43924 34943 ft 390 kts 230°
2026-05-05 05:38 40.11453 0.38739 34949 ft 389 kts 230°
2026-05-05 05:38 40.07760 0.33554 34952 ft 390 kts 230°
2026-05-05 05:39 40.04067 0.28354 34943 ft 390 kts 230°
2026-05-05 05:39 40.00376 0.23205 34923 ft 386 kts 230°
2026-05-05 05:40 39.96678 0.18088 34932 ft 387 kts 230°
2026-05-05 05:40 39.93003 0.12974 34939 ft 387 kts 230°
2026-05-05 05:41 39.89352 0.07886 34934 ft 387 kts 230°
2026-05-05 05:41 39.85657 0.02764 34937 ft 387 kts 230°
2026-05-05 05:42 39.81977 -0.02340 34957 ft 387 kts 230°
2026-05-05 05:42 39.78308 -0.07437 34918 ft 384 kts 231°
2026-05-05 05:43 39.74650 -0.12514 34938 ft 384 kts 231°
2026-05-05 05:43 39.71608 -0.16705 34946 ft 385 kts 231°
2026-05-05 05:44 39.67936 -0.21758 34952 ft 384 kts 231°
2026-05-05 05:44 39.64263 -0.26798 34957 ft 384 kts 231°
2026-05-05 05:45 39.60593 -0.31844 34962 ft 384 kts 231°
2026-05-05 05:45 39.56913 -0.36879 34933 ft 385 kts 231°
2026-05-05 05:46 39.53252 -0.41891 34957 ft 383 kts 231°
2026-05-05 05:46 39.49587 -0.46911 34961 ft 382 kts 231°
2026-05-05 05:47 39.46245 -0.52235 34964 ft 380 kts 236°
2026-05-05 05:47 39.43061 -0.57700 34962 ft 380 kts 236°
2026-05-05 05:48 39.39868 -0.63153 34962 ft 381 kts 236°
2026-05-05 05:48 39.36683 -0.68569 34946 ft 381 kts 236°
2026-05-05 05:49 39.33460 -0.74050 34917 ft 382 kts 236°
2026-05-05 05:49 39.30270 -0.79470 34969 ft 380 kts 236°
2026-05-05 05:50 39.27067 -0.84895 34976 ft 380 kts 236°
2026-05-05 05:50 39.23859 -0.90319 34962 ft 380 kts 236°
2026-05-05 05:51 39.20646 -0.95739 34967 ft 381 kts 236°
2026-05-05 05:51 39.17431 -1.01158 34970 ft 380 kts 236°
2026-05-05 05:52 39.14213 -1.06563 34970 ft 380 kts 236°
2026-05-05 05:52 39.10988 -1.11972 34954 ft 381 kts 236°
2026-05-05 05:53 39.07760 -1.17384 34988 ft 380 kts 236°
2026-05-05 05:53 39.04534 -1.22784 34995 ft 380 kts 236°
2026-05-05 05:54 39.01302 -1.28187 34992 ft 380 kts 236°
2026-05-05 05:54 38.98065 -1.33581 34988 ft 381 kts 236°
2026-05-05 05:55 38.94829 -1.38973 34994 ft 380 kts 236°
2026-05-05 05:55 38.91596 -1.44350 34997 ft 380 kts 236°
2026-05-05 05:56 38.88373 -1.49693 35006 ft 381 kts 236°
2026-05-05 05:56 38.85116 -1.55092 34998 ft 383 kts 236°
2026-05-05 05:57 38.81842 -1.60509 35007 ft 384 kts 236°
2026-05-05 05:57 38.78568 -1.65915 35008 ft 384 kts 236°
2026-05-05 05:58 38.75298 -1.71310 35016 ft 384 kts 236°
2026-05-05 05:58 38.72020 -1.76705 35013 ft 383 kts 236°
2026-05-05 05:59 38.68739 -1.82092 35017 ft 384 kts 236°
2026-05-05 05:59 38.65456 -1.87481 35016 ft 383 kts 236°
2026-05-05 06:00 38.62174 -1.92860 35031 ft 383 kts 236°
2026-05-05 06:00 38.58888 -1.98228 35016 ft 382 kts 236°
2026-05-05 06:01 38.55628 -2.03539 35018 ft 383 kts 236°
2026-05-05 06:01 38.52337 -2.08900 35024 ft 383 kts 236°
2026-05-05 06:02 38.49052 -2.14246 35026 ft 383 kts 236°
2026-05-05 06:02 38.45759 -2.19597 35027 ft 383 kts 236°
2026-05-05 06:03 38.42447 -2.24973 35032 ft 383 kts 236°
2026-05-05 06:03 38.39178 -2.30269 35037 ft 382 kts 236°
2026-05-05 06:04 38.35850 -2.35556 35033 ft 384 kts 233°
2026-05-05 06:04 38.32185 -2.40536 35043 ft 385 kts 231°
2026-05-05 06:05 38.28494 -2.45478 35033 ft 385 kts 231°
2026-05-05 06:05 38.24804 -2.50423 35037 ft 385 kts 231°
2026-05-05 06:06 38.21103 -2.55380 35030 ft 388 kts 231°
2026-05-05 06:06 38.17393 -2.60340 35052 ft 387 kts 231°
2026-05-05 06:07 38.13693 -2.65283 35018 ft 387 kts 231°
2026-05-05 06:07 38.09976 -2.70240 35037 ft 387 kts 231°
2026-05-05 06:08 38.06255 -2.75185 35041 ft 387 kts 231°
2026-05-05 06:08 38.02525 -2.80134 35043 ft 387 kts 231°
2026-05-05 06:09 37.98805 -2.85079 35044 ft 388 kts 231°
2026-05-05 06:09 37.94828 -2.89728 35034 ft 397 kts 221°
2026-05-05 06:10 37.90187 -2.93518 35026 ft 397 kts 219°
2026-05-05 06:10 37.85564 -2.97276 35027 ft 397 kts 219°
2026-05-05 06:11 37.80894 -3.01095 35035 ft 397 kts 219°
2026-05-05 06:11 37.76263 -3.04882 34973 ft 389 kts 219°
2026-05-05 06:12 37.74025 -3.06714 34679 ft 391 kts 219°
2026-05-05 06:12 37.71732 -3.08593 34420 ft 394 kts 219°
2026-05-05 06:12 37.69432 -3.10471 34156 ft 394 kts 219°
2026-05-05 06:12 37.67134 -3.12339 33616 ft 390 kts 219°
2026-05-05 06:13 37.64858 -3.14186 33051 ft 388 kts 219°
2026-05-05 06:13 37.62594 -3.16027 32490 ft 385 kts 219°
2026-05-05 06:13 37.60354 -3.17852 31892 ft 383 kts 219°
2026-05-05 06:13 37.58112 -3.19676 31295 ft 383 kts 219°
2026-05-05 06:14 37.55877 -3.21492 30691 ft 382 kts 219°
2026-05-05 06:14 37.53637 -3.23312 30064 ft 384 kts 219°
2026-05-05 06:14 37.51388 -3.25142 29310 ft 387 kts 219°
2026-05-05 06:14 37.49118 -3.26990 28586 ft 389 kts 218°
2026-05-05 06:15 37.46833 -3.28843 27898 ft 392 kts 218°
2026-05-05 06:15 37.44528 -3.30707 27189 ft 395 kts 218°
2026-05-05 06:15 37.42206 -3.32585 26435 ft 399 kts 217°
2026-05-05 06:15 37.39866 -3.34479 25685 ft 402 kts 217°
2026-05-05 06:16 37.37500 -3.36393 24939 ft 406 kts 217°
2026-05-05 06:16 37.35148 -3.38293 24264 ft 409 kts 217°
2026-05-05 06:16 37.32742 -3.40233 23632 ft 412 kts 217°
2026-05-05 06:16 37.30333 -3.42174 22952 ft 410 kts 216°
2026-05-05 06:17 37.27938 -3.44096 22327 ft 408 kts 216°
2026-05-05 06:17 37.25477 -3.46077 21978 ft 427 kts 216°
2026-05-05 06:17 37.22967 -3.48093 21664 ft 428 kts 216°
2026-05-05 06:17 37.20492 -3.50082 21294 ft 418 kts 216°
2026-05-05 06:18 37.18057 -3.52036 20762 ft 411 kts 216°
2026-05-05 06:18 37.15669 -3.53953 20231 ft 405 kts 216°
2026-05-05 06:18 37.13307 -3.55846 19693 ft 399 kts 216°
2026-05-05 06:18 37.11024 -3.57770 18982 ft 394 kts 220°
2026-05-05 06:19 37.08858 -3.59887 18036 ft 395 kts 221°
2026-05-05 06:19 37.06705 -3.62037 16961 ft 397 kts 221°
2026-05-05 06:19 37.04532 -3.64199 15888 ft 400 kts 221°
2026-05-05 06:19 37.02344 -3.66364 14957 ft 403 kts 221°
2026-05-05 06:20 37.00145 -3.68534 14349 ft 400 kts 221°
2026-05-05 06:20 36.97973 -3.70671 13791 ft 392 kts 221°
2026-05-05 06:20 36.95849 -3.72757 13243 ft 387 kts 221°
2026-05-05 06:20 36.93743 -3.74823 12683 ft 383 kts 221°
2026-05-05 06:21 36.91659 -3.76869 12185 ft 378 kts 220°
2026-05-05 06:21 36.89624 -3.78863 11812 ft 366 kts 220°
2026-05-05 06:21 36.87662 -3.80784 11551 ft 351 kts 220°
2026-05-05 06:21 36.85777 -3.82627 11357 ft 337 kts 221°
2026-05-05 06:22 36.83970 -3.84395 11175 ft 324 kts 221°
2026-05-05 06:22 36.82227 -3.86099 11008 ft 312 kts 221°
2026-05-05 06:22 36.80576 -3.87713 10855 ft 299 kts 221°
2026-05-05 06:22 36.78971 -3.89282 10720 ft 287 kts 221°
2026-05-05 06:23 36.77418 -3.90798 10453 ft 281 kts 221°
2026-05-05 06:23 36.75889 -3.92292 10050 ft 279 kts 221°
2026-05-05 06:23 36.74353 -3.93792 9563 ft 281 kts 221°
2026-05-05 06:23 36.72818 -3.95291 9133 ft 280 kts 221°
2026-05-05 06:24 36.71290 -3.96782 8764 ft 278 kts 221°
2026-05-05 06:24 36.69776 -3.98255 8426 ft 274 kts 221°
2026-05-05 06:24 36.68271 -3.99718 8112 ft 272 kts 221°
2026-05-05 06:24 36.66931 -4.01366 7490 ft 270 kts 238°
2026-05-05 06:25 36.66094 -4.03446 6867 ft 272 kts 250°
2026-05-05 06:25 36.65382 -4.05585 6637 ft 265 kts 248°
2026-05-05 06:25 36.64639 -4.07672 6223 ft 263 kts 248°
2026-05-05 06:25 36.63891 -4.09749 5705 ft 262 kts 248°
2026-05-05 06:26 36.63145 -4.11819 5202 ft 261 kts 248°
2026-05-05 06:26 36.62406 -4.13869 4697 ft 259 kts 248°
2026-05-05 06:26 36.61667 -4.15914 4152 ft 259 kts 248°
2026-05-05 06:26 36.60928 -4.17959 3593 ft 259 kts 248°
2026-05-05 06:27 36.60437 -4.19316 3223 ft 260 kts 249°
2026-05-05 06:27 36.58964 -4.23387 2532 ft 256 kts 249°
2026-05-05 06:27 36.58241 -4.25384 2270 ft 250 kts 249°
2026-05-05 06:28 36.57538 -4.27319 2116 ft 239 kts 249°
2026-05-05 06:28 36.56872 -4.29157 1984 ft 227 kts 248°
2026-05-05 06:28 36.56251 -4.30884 1926 ft 211 kts 252°
2026-05-05 06:28 36.55884 -4.32515 1955 ft 180 kts 270°
2026-05-05 06:29 36.56135 -4.33968 1991 ft 173 kts 301°
2026-05-05 06:29 36.56876 -4.35136 2028 ft 171 kts 316°
2026-05-05 06:29 36.57694 -4.36210 2025 ft 171 kts 313°
2026-05-05 06:29 36.58491 -4.37310 2020 ft 172 kts 313°
2026-05-05 06:30 36.59283 -4.38416 2020 ft 169 kts 313°
2026-05-05 06:30 36.60065 -4.39509 1971 ft 170 kts 313°
2026-05-05 06:30 36.60851 -4.40610 1784 ft 170 kts 313°
2026-05-05 06:30 36.61628 -4.41697 1555 ft 168 kts 313°
2026-05-05 06:31 36.62383 -4.42755 1367 ft 151 kts 312°
2026-05-05 06:31 36.63017 -4.43642 1144 ft 127 kts 311°
2026-05-05 06:31 36.63597 -4.44454 956 ft 126 kts 311°
2026-05-05 06:31 36.64183 -4.45275 784 ft 127 kts 310°
2026-05-05 06:32 36.64767 -4.46092 623 ft 126 kts 309°
2026-05-05 06:32 36.65356 -4.46907 427 ft 127 kts 308°
2026-05-05 06:32 36.65938 -4.47737 246 ft 128 kts 309°
2026-05-05 06:32 36.66534 -4.48567 89 ft 128 kts 308°
2026-05-05 06:33 36.67085 -4.49347 51 ft 106 kts 312°
2026-05-05 06:33 36.67431 -4.49825 55 ft 46 kts 313°
2026-05-05 06:33 36.67596 -4.50054 55 ft 35 kts 314°
2026-05-05 06:33 36.67763 -4.50196 59 ft 27 kts 333°
2026-05-05 06:34 36.67879 -4.50205 52 ft 16 kts 71°
2026-05-05 06:34 36.67838 -4.50102 48 ft 14 kts 130°
2026-05-05 06:34 36.67769 -4.50004 49 ft 16 kts 131°
2026-05-05 06:34 36.67720 -4.49904 47 ft 6 kts 70°
2026-05-05 06:35 36.67758 -4.49868 48 ft 8 kts 17°
2026-05-05 06:35 36.67814 -4.49831 47 ft 11 kts 38°
2026-05-05 06:35 36.67877 -4.49764 47 ft 13 kts 42°
2026-05-05 06:35 36.67948 -4.49685 47 ft 15 kts 41°
2026-05-05 06:36 36.68018 -4.49594 47 ft 13 kts 82°
2026-05-05 06:36 36.67964 -4.49532 47 ft 8 kts 184°
2026-05-05 06:36 36.67926 -4.49534 47 ft 2 kts 180°
2026-05-05 06:36 36.67918 -4.49534 47 ft 0 kts 183°